contact:dominique.lefevre@mio.osupytheas.fr, maurice.libes@osupytheas.fr, didier.mallarino@osupytheas.fr
Project:EMSO http://www.emso-fr.org/EMSO-France
Depth: 2436.0 m
Title:EMSO Ligure Ouest : Data MII capteur AQUADOPP
Date,Latitude,Longitude,X_East,Y_North,Z_Up,Amplitude_X,Amplitude_Y,Amplitude_Z,Batterie,SoundSpeed,Heading,Pitch,Roll,Pressure,TIS,Speed,Direction
, degrees North, degrees East, m.s-1, m.s-1,m.s-1, 1, 1, 1, Volt, m.s-1, degree, degree, degree, dbar, degree_C, m.s-1, degree
2023-11-03T00:04:03,42.805,6.029,0.018,0.005,-0.014,102.0,104.0,102.0,13.4,1505.2,344.1,-0.8,1.8,2471.56,13.29,0.018,74.5
2023-11-03T00:07:03,42.805,6.029,0.013,0.012,-0.037,103.0,105.0,101.0,13.3,1505.2,338.7,-0.8,1.8,2471.575,13.29,0.017,47.3
2023-11-03T00:10:03,42.805,6.029,0.0,0.005,-0.026,102.0,104.0,101.0,13.4,1505.2,358.0,-0.8,1.9,2471.576,13.29,0.005,0.0
2023-11-03T00:13:03,42.805,6.029,-0.005,0.032,-0.025,104.0,102.0,102.0,13.4,1505.2,351.1,-0.7,1.8,2471.563,13.29,0.032,351.1
2023-11-03T00:16:03,42.805,6.029,-0.001,0.036,-0.005,104.0,102.0,101.0,13.3,1505.2,334.2,-0.7,1.8,2471.558,13.29,0.036,358.4
2023-11-03T00:19:03,42.805,6.029,0.001,0.029,0.0,104.0,103.0,104.0,13.3,1505.2,351.7,-0.8,1.8,2471.537,13.3,0.029,2.0
2023-11-03T00:22:03,42.805,6.029,-0.021,0.039,-0.014,101.0,103.0,101.0,13.3,1505.2,343.9,-0.8,1.8,2471.563,13.3,0.044,331.7
2023-11-03T00:25:03,42.805,6.029,0.008,0.026,-0.021,102.0,103.0,101.0,13.4,1505.2,333.0,-0.8,1.8,2471.565,13.3,0.027,17.1
2023-11-03T00:28:03,42.805,6.029,0.017,0.022,0.003,102.0,102.0,100.0,13.3,1505.2,0.9,-0.8,1.8,2471.54,13.3,0.027,37.7
2023-11-03T00:31:03,42.805,6.029,-0.001,0.02,-0.03,103.0,104.0,101.0,13.3,1505.2,342.7,-0.8,1.8,2471.544,13.3,0.02,357.1
2023-11-03T00:34:03,42.805,6.029,0.019,0.005,-0.028,103.0,103.0,102.0,13.3,1505.2,338.2,-0.8,1.8,2471.545,13.3,0.019,75.3
2023-11-03T00:37:03,42.805,6.029,-0.003,0.029,-0.023,100.0,103.0,102.0,13.4,1505.2,343.4,-0.7,1.8,2471.564,13.3,0.029,354.1
2023-11-03T00:40:03,42.805,6.029,0.022,0.004,-0.019,106.0,101.0,102.0,13.3,1505.2,350.9,-0.8,1.8,2471.501,13.3,0.022,79.7
2023-11-03T00:43:03,42.805,6.029,-0.001,0.035,-0.009,102.0,104.0,101.0,13.4,1505.2,350.0,-0.8,1.8,2471.562,13.3,0.035,358.4
2023-11-03T00:46:03,42.805,6.029,0.01,0.02,-0.038,103.0,103.0,101.0,13.3,1505.2,338.2,-0.7,1.8,2471.519,13.3,0.022,26.6
2023-11-03T00:49:03,42.805,6.029,0.021,0.024,-0.015,103.0,102.0,100.0,13.4,1505.2,0.9,-0.8,1.8,2471.568,13.3,0.031,41.2
2023-11-03T00:52:03,42.805,6.029,-0.001,0.011,0.005,102.0,103.0,102.0,13.3,1505.2,343.6,-0.8,1.8,2471.529,13.3,0.011,354.8
2023-11-03T00:55:03,42.805,6.029,-0.004,0.019,-0.017,102.0,103.0,101.0,13.3,1505.2,335.4,-0.8,1.8,2471.536,13.3,0.019,348.1
2023-11-03T00:58:03,42.805,6.029,-0.002,0.019,-0.051,102.0,102.0,103.0,13.3,1505.2,351.7,-0.8,1.8,2471.481,13.3,0.019,354.0
2023-11-03T01:04:03,42.805,6.029,0.011,0.017,-0.034,102.0,103.0,101.0,13.4,1505.2,345.2,-0.8,1.8,2471.558,13.29,0.02,32.9
2023-11-03T01:07:03,42.805,6.029,-0.004,0.015,-0.053,104.0,102.0,102.0,13.4,1505.2,341.5,-0.8,1.8,2471.561,13.29,0.015,345.1
2023-11-03T01:10:03,42.805,6.029,-0.005,0.007,-0.014,103.0,104.0,102.0,13.3,1505.2,347.3,-0.8,1.8,2471.585,13.29,0.008,324.5
2023-11-03T01:13:03,42.805,6.029,0.001,-0.003,-0.039,101.0,103.0,103.0,13.3,1505.2,351.0,-0.8,1.9,2471.542,13.29,0.003,161.6
2023-11-03T01:16:03,42.805,6.029,-0.012,0.044,-0.021,102.0,102.0,101.0,13.4,1505.2,339.0,-0.7,1.8,2471.538,13.29,0.045,344.7
2023-11-03T01:19:03,42.805,6.029,0.006,0.017,-0.027,102.0,104.0,108.0,13.4,1505.2,356.5,-0.8,1.8,2471.548,13.29,0.018,19.4
2023-11-03T01:22:02,42.805,6.029,-0.003,-0.003,-0.05,103.0,101.0,101.0,13.4,1505.2,356.9,-0.8,1.8,2471.51,13.3,0.004,225.0
2023-11-03T01:25:03,42.805,6.029,0.011,0.007,-0.034,102.0,103.0,102.0,13.3,1505.2,341.5,-0.8,1.8,2471.481,13.3,0.013,57.5
2023-11-03T01:28:03,42.805,6.029,0.005,0.013,-0.043,102.0,102.0,102.0,13.4,1505.2,334.2,-0.8,1.8,2471.499,13.3,0.013,21.0
2023-11-03T01:31:03,42.805,6.029,0.009,0.019,-0.04,103.0,102.0,101.0,13.4,1505.2,339.7,-0.8,1.8,2471.548,13.3,0.021,25.3
2023-11-03T01:34:03,42.805,6.029,0.003,0.022,-0.023,103.0,105.0,101.0,13.4,1505.2,353.3,-0.8,1.8,2471.526,13.3,0.022,7.8
2023-11-03T01:37:03,42.805,6.029,0.004,-0.001,-0.02,102.0,102.0,102.0,13.4,1505.2,352.4,-0.8,1.9,2471.519,13.3,0.004,104.0
2023-11-03T01:40:03,42.805,6.029,0.003,0.02,-0.022,102.0,103.0,101.0,13.4,1505.2,358.0,-0.8,1.8,2471.492,13.3,0.02,8.5
2023-11-03T01:43:03,42.805,6.029,0.0,-0.006,-0.028,103.0,104.0,101.0,13.4,1505.2,349.9,-0.8,1.8,2471.484,13.3,0.006,180.0
2023-11-03T01:46:03,42.805,6.029,-0.008,0.043,0.006,101.0,102.0,101.0,13.4,1505.2,336.3,-0.8,1.8,2471.517,13.3,0.043,349.5
2023-11-03T01:49:03,42.805,6.029,0.017,0.029,-0.008,103.0,102.0,101.0,13.3,1505.2,355.6,-0.8,1.8,2471.538,13.3,0.033,30.4
2023-11-03T01:52:03,42.805,6.029,0.017,0.011,-0.024,102.0,102.0,101.0,13.3,1505.2,340.7,-0.8,1.8,2471.545,13.3,0.02,57.1
2023-11-03T01:55:03,42.805,6.029,0.013,0.023,-0.015,102.0,102.0,101.0,13.4,1505.2,332.3,-0.8,1.8,2471.47,13.3,0.026,29.5
2023-11-03T01:58:03,42.805,6.029,0.028,0.019,-0.009,103.0,104.0,101.0,13.3,1505.2,344.3,-0.8,1.8,2471.508,13.3,0.033,55.8
2023-11-03T02:04:03,42.805,6.029,-0.008,0.01,-0.017,102.0,103.0,101.0,13.4,1505.2,338.4,-0.8,1.8,2471.522,13.3,0.012,321.3
2023-11-03T02:07:03,42.805,6.029,0.027,0.016,0.025,102.0,103.0,101.0,13.4,1505.2,345.7,-0.8,1.8,2471.541,13.3,0.031,59.3
2023-11-03T02:10:03,42.805,6.029,0.019,-0.001,-0.017,102.0,103.0,100.0,13.4,1505.2,346.1,-0.8,1.8,2471.534,13.3,0.019,93.0
2023-11-03T02:13:03,42.805,6.029,0.02,0.009,-0.004,103.0,103.0,100.0,13.4,1505.2,334.1,-0.8,1.8,2471.547,13.3,0.021,65.8
2023-11-03T02:16:03,42.805,6.029,0.025,-0.011,-0.028,103.0,102.0,101.0,13.4,1505.2,356.9,-0.8,1.8,2471.53,13.3,0.027,113.7
2023-11-03T02:19:03,42.805,6.029,-0.005,0.003,-0.033,102.0,103.0,101.0,13.4,1505.2,348.1,-0.8,1.8,2471.498,13.3,0.005,301.0
2023-11-03T02:22:03,42.805,6.029,0.0,0.0,-0.046,102.0,102.0,102.0,13.4,1505.2,344.3,-0.8,1.8,2471.486,13.3,0.0,0.0
2023-11-03T02:25:03,42.805,6.029,0.042,0.0,-0.012,101.0,103.0,101.0,13.4,1505.2,348.2,-0.8,1.8,2471.505,13.3,0.042,90.0
2023-11-03T02:28:03,42.805,6.029,0.017,-0.007,-0.023,103.0,103.0,107.0,13.4,1505.2,357.9,-0.8,1.8,2471.515,13.3,0.018,112.4
2023-11-03T02:31:03,42.805,6.029,-0.005,0.022,-0.013,102.0,102.0,101.0,13.4,1505.2,351.8,-0.7,1.8,2471.474,13.3,0.022,347.2
2023-11-03T02:34:03,42.805,6.029,0.001,0.014,0.004,101.0,103.0,102.0,13.4,1505.2,351.6,-0.7,1.8,2471.517,13.3,0.014,4.1
2023-11-03T02:37:03,42.805,6.029,0.036,0.004,0.004,104.0,103.0,99.0,13.4,1505.2,334.6,-0.8,1.8,2471.509,13.3,0.036,83.7
2023-11-03T02:40:03,42.805,6.029,0.018,0.005,-0.032,103.0,103.0,102.0,13.4,1505.2,359.1,-0.8,1.8,2471.488,13.3,0.018,74.5
2023-11-03T02:43:03,42.805,6.029,0.01,-0.033,-0.059,103.0,103.0,102.0,13.4,1505.2,353.1,-0.7,1.8,2471.488,13.3,0.034,163.1
2023-11-03T02:46:03,42.805,6.029,0.008,0.037,-0.009,105.0,102.0,101.0,13.4,1505.2,343.4,-0.7,1.9,2471.471,13.3,0.037,12.2
2023-11-03T02:49:03,42.805,6.029,0.013,0.01,-0.003,103.0,101.0,102.0,13.4,1505.2,357.2,-0.7,1.8,2471.471,13.3,0.016,52.4
2023-11-03T02:52:03,42.805,6.029,-0.016,0.002,-0.048,104.0,102.0,101.0,13.4,1505.2,343.4,-0.8,1.8,2471.45,13.3,0.016,277.1
2023-11-03T02:55:03,42.805,6.029,-0.004,0.004,-0.041,102.0,102.0,101.0,13.4,1505.2,348.3,-0.8,1.8,2471.455,13.3,0.005,315.0
2023-11-03T02:58:03,42.805,6.029,0.009,0.001,-0.035,103.0,103.0,101.0,13.4,1505.2,359.0,-0.8,1.8,2471.477,13.3,0.009,83.7
2023-11-03T03:04:03,42.805,6.029,0.019,0.015,0.022,101.0,102.0,101.0,13.3,1505.2,354.4,-0.7,1.8,2471.496,13.3,0.024,51.7
2023-11-03T03:07:03,42.805,6.029,-0.01,0.004,-0.036,104.0,101.0,104.0,13.4,1505.2,346.9,-0.7,1.8,2471.468,13.3,0.01,291.8
2023-11-03T03:10:03,42.805,6.029,0.022,0.006,-0.013,104.0,103.0,101.0,13.4,1505.2,351.2,-0.7,1.8,2471.509,13.3,0.022,74.7
2023-11-03T03:13:03,42.805,6.029,-0.002,0.016,-0.006,102.0,102.0,105.0,13.4,1505.2,350.7,-0.8,1.8,2471.501,13.3,0.016,352.9
2023-11-03T03:16:03,42.805,6.029,0.001,0.011,-0.026,102.0,103.0,101.0,13.4,1505.2,344.3,-0.7,1.8,2471.505,13.3,0.011,5.2
2023-11-03T03:19:03,42.805,6.029,0.024,0.009,-0.023,102.0,103.0,101.0,13.4,1505.2,335.2,-0.8,1.8,2471.455,13.3,0.025,69.4
2023-11-03T03:22:03,42.805,6.029,0.027,0.003,-0.019,102.0,106.0,101.0,13.4,1505.2,359.0,-0.8,1.8,2471.454,13.3,0.027,83.7
2023-11-03T03:25:03,42.805,6.029,0.0,0.012,0.0,103.0,104.0,103.0,13.4,1505.2,349.6,-0.8,1.8,2471.477,13.3,0.012,0.0
2023-11-03T03:28:03,42.805,6.029,-0.003,0.016,-0.018,103.0,102.0,102.0,13.4,1505.2,335.2,-0.7,1.8,2471.45,13.3,0.016,349.4
2023-11-03T03:31:03,42.805,6.029,0.02,0.01,-0.023,103.0,103.0,101.0,13.3,1505.2,359.0,-0.8,1.8,2471.464,13.3,0.022,63.4
2023-11-03T03:34:03,42.805,6.029,0.008,0.002,-0.023,101.0,103.0,103.0,13.4,1505.2,345.1,-0.8,1.8,2471.473,13.3,0.008,76.0
2023-11-03T03:37:03,42.805,6.029,0.009,0.017,-0.01,104.0,103.0,100.0,13.3,1505.2,336.3,-0.7,1.8,2471.449,13.3,0.019,27.9
2023-11-03T03:40:03,42.805,6.029,0.016,0.009,-0.011,105.0,103.0,101.0,13.4,1505.2,350.8,-0.7,1.8,2471.504,13.3,0.018,60.6
2023-11-03T03:43:03,42.805,6.029,0.036,0.0,-0.039,102.0,102.0,102.0,13.3,1505.2,344.5,-0.8,1.8,2471.478,13.3,0.036,90.0
2023-11-03T03:46:03,42.805,6.029,0.004,0.006,-0.032,102.0,102.0,102.0,13.4,1505.2,337.5,-0.7,1.8,2471.467,13.3,0.007,33.7
2023-11-03T03:49:03,42.805,6.029,-0.005,-0.005,-0.027,103.0,103.0,101.0,13.4,1505.2,359.0,-0.8,1.8,2471.477,13.3,0.007,225.0
2023-11-03T03:52:03,42.805,6.029,0.01,0.012,-0.042,102.0,102.0,101.0,13.4,1505.2,342.4,-0.8,1.8,2471.48,13.3,0.015,39.8
2023-11-03T03:55:03,42.805,6.029,0.021,-0.012,-0.049,102.0,103.0,101.0,13.3,1505.2,338.7,-0.8,1.8,2471.455,13.3,0.024,119.7
2023-11-03T03:58:03,42.805,6.029,0.003,0.017,-0.01,102.0,103.0,101.0,13.4,1505.2,348.5,-0.8,1.8,2471.479,13.3,0.017,10.0
2023-11-03T04:04:03,42.805,6.029,0.006,-0.007,-0.025,103.0,103.0,101.0,13.4,1505.2,354.3,-0.8,1.8,2471.523,13.29,0.009,139.4
2023-11-03T04:07:03,42.805,6.029,0.011,0.0,-0.011,103.0,102.0,102.0,13.4,1505.2,337.8,-0.7,1.8,2471.543,13.29,0.011,90.0
2023-11-03T04:10:03,42.805,6.029,0.0,0.01,-0.039,102.0,102.0,101.0,13.4,1505.2,333.4,-0.8,1.8,2471.517,13.29,0.01,0.0
2023-11-03T04:13:03,42.805,6.029,0.013,0.002,-0.023,103.0,104.0,103.0,13.4,1505.2,355.7,-0.8,1.8,2471.504,13.3,0.013,81.3
2023-11-03T04:16:03,42.805,6.029,0.004,0.002,-0.028,103.0,104.0,102.0,13.4,1505.2,341.5,-0.8,1.8,2471.499,13.3,0.004,63.4
2023-11-03T04:19:03,42.805,6.029,0.008,0.01,-0.008,105.0,103.0,101.0,13.3,1505.2,334.2,-0.8,1.8,2471.474,13.3,0.012,38.7
2023-11-03T04:22:03,42.805,6.029,0.001,0.008,0.008,104.0,103.0,102.0,13.4,1505.2,331.4,-0.8,1.8,2471.466,13.3,0.008,7.1
2023-11-03T04:25:03,42.805,6.029,-0.007,0.017,-0.013,104.0,102.0,101.0,13.4,1505.2,339.0,-0.7,1.8,2471.48,13.3,0.018,337.6
2023-11-03T04:28:03,42.805,6.029,-0.002,0.017,-0.019,103.0,102.0,101.0,13.4,1505.2,351.3,-0.8,1.8,2471.443,13.3,0.017,353.3
2023-11-03T04:31:03,42.805,6.029,0.014,0.012,-0.005,103.0,102.0,101.0,13.4,1505.2,340.7,-0.7,1.8,2471.436,13.3,0.018,49.4
2023-11-03T04:34:03,42.805,6.029,0.004,0.026,-0.007,103.0,103.0,102.0,13.4,1505.2,358.1,-0.8,1.8,2471.454,13.3,0.026,8.7
2023-11-03T04:37:03,42.805,6.029,-0.002,0.006,-0.043,102.0,102.0,103.0,13.3,1505.2,347.6,-0.8,1.8,2471.478,13.3,0.006,341.6
2023-11-03T04:40:03,42.805,6.029,0.012,0.007,-0.006,103.0,103.0,102.0,13.4,1505.2,350.9,-0.8,1.8,2471.459,13.3,0.013,59.7
2023-11-03T04:43:03,42.805,6.029,0.004,-0.003,-0.012,103.0,104.0,102.0,13.4,1505.2,346.8,-0.7,1.8,2471.458,13.3,0.005,126.9
2023-11-03T04:46:03,42.805,6.029,0.031,-0.015,-0.01,101.0,104.0,101.0,13.4,1505.2,335.9,-0.8,1.8,2471.476,13.3,0.034,115.8
2023-11-03T04:49:03,42.805,6.029,0.007,0.006,-0.028,102.0,102.0,101.0,13.4,1505.2,355.7,-0.8,1.9,2471.486,13.3,0.009,49.4
2023-11-03T04:52:03,42.805,6.029,0.016,0.004,-0.033,104.0,102.0,102.0,13.4,1505.2,341.5,-0.7,1.8,2471.471,13.3,0.016,76.0
2023-11-03T04:55:03,42.805,6.029,0.0,0.013,-0.033,103.0,104.0,101.0,13.3,1505.2,347.4,-0.8,1.8,2471.478,13.3,0.013,0.0
2023-11-03T04:58:03,42.805,6.029,0.017,0.036,-0.002,102.0,103.0,100.0,13.4,1505.2,359.0,-0.8,1.8,2471.45,13.3,0.039,25.3
2023-11-03T05:04:03,42.805,6.029,0.0,0.011,-0.029,104.0,104.0,101.0,13.4,1505.2,344.5,-0.8,1.8,2471.533,13.29,0.011,0.0
2023-11-03T05:07:03,42.805,6.029,0.018,0.01,-0.007,102.0,105.0,102.0,13.4,1505.2,339.0,-0.8,1.8,2471.527,13.29,0.02,60.9
2023-11-03T05:10:03,42.805,6.029,0.004,-0.012,-0.029,102.0,103.0,102.0,13.3,1505.2,0.9,-0.8,1.8,2471.523,13.29,0.012,161.6
2023-11-03T05:13:03,42.805,6.029,-0.009,0.003,-0.03,103.0,103.0,101.0,13.3,1505.2,338.8,-0.7,1.8,2471.511,13.29,0.009,288.4
2023-11-03T05:16:03,42.805,6.029,0.037,-0.002,-0.041,103.0,102.0,102.0,13.4,1505.2,0.0,-0.7,1.8,2471.531,13.3,0.037,93.1
2023-11-03T05:19:03,42.805,6.029,-0.011,0.024,-0.013,102.0,103.0,101.0,13.4,1505.2,341.8,-0.7,1.8,2471.49,13.3,0.026,335.4
2023-11-03T05:22:03,42.805,6.029,-0.024,0.013,-0.043,102.0,103.0,102.0,13.4,1505.2,343.0,-0.8,1.8,2471.535,13.3,0.027,298.4
2023-11-03T05:25:03,42.805,6.029,0.006,0.012,-0.009,103.0,103.0,104.0,13.4,1505.2,350.2,-0.8,1.8,2471.504,13.3,0.013,26.6
2023-11-03T05:28:03,42.805,6.029,0.002,0.018,-0.037,105.0,102.0,103.0,13.4,1505.2,348.1,-0.8,1.8,2471.496,13.3,0.018,6.3
2023-11-03T05:31:03,42.805,6.029,-0.007,0.001,-0.01,104.0,104.0,105.0,13.3,1505.2,340.9,-0.8,1.8,2471.523,13.3,0.007,278.1
2023-11-03T05:34:03,42.805,6.029,-0.006,0.004,-0.075,104.0,103.0,100.0,13.3,1505.2,344.4,-0.7,1.8,2471.499,13.3,0.007,303.7
2023-11-03T05:37:03,42.805,6.029,0.011,0.012,-0.043,103.0,103.0,102.0,13.4,1505.2,356.9,-0.8,1.8,2471.516,13.3,0.016,42.5
2023-11-03T05:40:03,42.805,6.029,0.001,0.014,-0.017,103.0,103.0,101.0,13.3,1505.2,354.4,-0.8,1.8,2471.502,13.3,0.014,4.1
2023-11-03T05:43:03,42.805,6.029,0.011,0.027,-0.002,103.0,105.0,101.0,13.4,1505.2,343.3,-0.7,1.8,2471.491,13.3,0.029,22.2
2023-11-03T05:46:03,42.805,6.029,0.016,-0.009,-0.024,102.0,104.0,101.0,13.4,1505.2,353.4,-0.7,1.8,2471.505,13.29,0.018,119.4
2023-11-03T05:49:03,42.805,6.029,0.01,0.032,0.005,102.0,104.0,102.0,13.3,1505.2,359.0,-0.8,1.9,2471.486,13.29,0.033,17.4
2023-11-03T05:52:03,42.805,6.029,0.002,-0.002,-0.041,103.0,103.0,102.0,13.3,1505.2,338.7,-0.8,1.8,2471.486,13.3,0.002,135.0
2023-11-03T05:55:03,42.805,6.029,0.006,-0.006,-0.028,103.0,102.0,103.0,13.4,1505.2,357.4,-0.8,1.8,2471.472,13.3,0.008,135.0
2023-11-03T05:58:03,42.805,6.029,0.008,0.016,-0.036,103.0,104.0,102.0,13.3,1505.2,351.1,-0.8,1.8,2471.495,13.3,0.017,26.6
2023-11-03T06:04:03,42.805,6.029,0.001,0.01,-0.048,104.0,103.0,101.0,13.3,1505.2,343.3,-0.8,1.8,2471.536,13.29,0.01,5.7
2023-11-03T06:07:03,42.805,6.029,-0.008,0.015,-0.04,102.0,104.0,101.0,13.4,1505.2,332.6,-0.7,1.8,2471.56,13.29,0.017,331.9
2023-11-03T06:10:03,42.805,6.029,0.011,0.012,-0.014,105.0,104.0,101.0,13.3,1505.2,346.3,-0.8,1.8,2471.545,13.29,0.016,42.5
2023-11-03T06:13:03,42.805,6.029,-0.014,0.041,-0.029,102.0,103.0,101.0,13.3,1505.2,345.9,-0.8,1.8,2471.547,13.29,0.043,341.1
2023-11-03T06:16:03,42.805,6.029,0.023,0.028,0.011,102.0,104.0,101.0,13.4,1505.2,345.5,-0.8,1.8,2471.532,13.29,0.036,39.4
2023-11-03T06:19:03,42.805,6.029,-0.009,0.011,-0.019,102.0,103.0,102.0,13.4,1505.2,345.3,-0.7,1.8,2471.556,13.3,0.014,320.7
2023-11-03T06:22:03,42.805,6.029,0.0,0.013,-0.02,104.0,103.0,107.0,13.3,1505.2,0.9,-0.8,1.8,2471.555,13.3,0.013,0.0
2023-11-03T06:25:03,42.805,6.029,-0.008,0.009,-0.028,103.0,102.0,101.0,13.4,1505.2,346.1,-0.8,1.9,2471.503,13.3,0.012,318.4
2023-11-03T06:28:03,42.805,6.029,0.008,0.001,-0.032,104.0,102.0,101.0,13.4,1505.2,338.5,-0.8,1.8,2471.537,13.3,0.008,82.9
2023-11-03T06:31:03,42.805,6.029,-0.009,0.014,0.0,103.0,103.0,101.0,13.3,1505.2,335.0,-0.8,1.8,2471.52,13.3,0.016,327.3
2023-11-03T06:34:03,42.805,6.029,-0.005,0.018,-0.018,102.0,103.0,102.0,13.4,1505.2,359.1,-0.7,1.8,2471.535,13.3,0.018,344.5
2023-11-03T06:37:03,42.805,6.029,0.003,0.005,-0.005,102.0,102.0,102.0,13.3,1505.2,338.5,-0.8,1.9,2471.535,13.3,0.005,31.0
2023-11-03T06:40:03,42.805,6.029,-0.009,0.007,-0.033,103.0,103.0,102.0,13.4,1505.2,333.4,-0.8,1.8,2471.508,13.3,0.011,307.9
2023-11-03T06:43:03,42.805,6.029,0.002,-0.003,-0.067,104.0,102.0,101.0,13.4,1505.2,333.8,-0.7,1.8,2471.541,13.3,0.003,146.3
2023-11-03T06:46:03,42.805,6.029,0.009,0.01,-0.015,103.0,102.0,101.0,13.4,1505.2,0.0,-0.8,1.8,2471.488,13.3,0.013,42.0
2023-11-03T06:49:03,42.805,6.029,-0.002,0.013,-0.029,103.0,104.0,102.0,13.3,1505.2,349.0,-0.7,1.8,2471.512,13.29,0.013,351.3
2023-11-03T06:52:03,42.805,6.029,-0.008,0.014,-0.045,104.0,101.0,102.0,13.3,1505.2,335.6,-0.8,1.8,2471.519,13.29,0.016,330.3
2023-11-03T06:55:03,42.805,6.029,-0.005,0.0,-0.04,103.0,106.0,101.0,13.3,1505.2,358.1,-0.8,1.8,2471.535,13.29,0.005,270.0
2023-11-03T06:58:03,42.805,6.029,-0.001,0.021,-0.044,104.0,108.0,101.0,13.4,1505.2,340.1,-0.8,1.8,2471.485,13.29,0.021,357.3
2023-11-03T07:04:03,42.805,6.029,0.0,-0.005,-0.014,103.0,105.0,101.0,13.3,1505.2,334.5,-0.8,1.8,2471.591,13.29,0.005,180.0
2023-11-03T07:07:03,42.805,6.029,0.003,-0.005,-0.011,103.0,104.0,101.0,13.4,1505.2,350.6,-0.8,1.8,2471.589,13.29,0.005,149.0
2023-11-03T07:10:03,42.805,6.029,0.006,-0.005,-0.032,103.0,102.0,102.0,13.4,1505.2,346.1,-0.8,1.8,2471.551,13.29,0.007,129.8
2023-11-03T07:13:03,42.805,6.029,-0.017,0.012,-0.045,104.0,103.0,102.0,13.4,1505.2,334.9,-0.8,1.8,2471.54,13.29,0.02,305.2
2023-11-03T07:16:03,42.805,6.029,0.001,0.001,-0.017,102.0,103.0,101.0,13.4,1505.2,357.9,-0.8,1.8,2471.561,13.29,0.001,45.0
2023-11-03T07:19:03,42.805,6.029,0.01,-0.007,-0.031,103.0,103.0,101.0,13.3,1505.2,345.3,-0.8,1.8,2471.524,13.29,0.012,125.0
2023-11-03T07:22:03,42.805,6.029,0.015,0.021,-0.017,104.0,105.0,101.0,13.4,1505.2,349.8,-0.7,1.8,2471.564,13.29,0.025,35.5
2023-11-03T07:25:03,42.805,6.029,0.004,-0.002,-0.037,102.0,106.0,102.0,13.4,1505.2,334.9,-0.8,1.8,2471.52,13.29,0.004,116.6
2023-11-03T07:28:03,42.805,6.029,0.001,0.007,-0.012,103.0,103.0,102.0,13.3,1505.2,336.0,-0.8,1.8,2471.569,13.29,0.007,8.1
2023-11-03T07:31:03,42.805,6.029,0.0,0.009,-0.031,104.0,105.0,101.0,13.4,1505.2,354.9,-0.8,1.8,2471.554,13.29,0.009,0.0
2023-11-03T07:34:03,42.805,6.029,-0.019,-0.002,-0.028,104.0,106.0,101.0,13.4,1505.2,352.1,-0.8,1.8,2471.558,13.29,0.019,264.0
2023-11-03T07:37:03,42.805,6.029,-0.021,0.024,-0.028,103.0,103.0,102.0,13.3,1505.2,344.2,-0.8,1.8,2471.564,13.29,0.031,318.8
2023-11-03T07:40:03,42.805,6.029,-0.01,0.012,-0.019,103.0,103.0,102.0,13.3,1505.2,334.5,-0.8,1.8,2471.606,13.29,0.015,320.2
2023-11-03T07:43:03,42.805,6.029,0.0,-0.006,-0.035,103.0,104.0,101.0,13.4,1505.2,336.6,-0.8,1.8,2471.547,13.29,0.006,180.0
2023-11-03T07:46:03,42.805,6.029,0.004,0.019,-0.024,103.0,103.0,101.0,13.3,1505.2,348.5,-0.8,1.8,2471.559,13.29,0.019,11.9
2023-11-03T07:49:03,42.805,6.029,0.003,0.003,0.003,103.0,103.0,101.0,13.3,1505.2,358.0,-0.8,1.8,2471.549,13.29,0.004,45.0
2023-11-03T07:52:03,42.805,6.029,-0.003,0.016,-0.027,104.0,104.0,100.0,13.4,1505.2,341.5,-0.8,1.8,2471.602,13.29,0.016,349.4
2023-11-03T07:55:03,42.805,6.029,-0.013,-0.012,-0.059,102.0,102.0,103.0,13.4,1505.2,332.6,-0.8,1.8,2471.532,13.29,0.017,227.3
2023-11-03T07:58:03,42.805,6.029,-0.005,0.021,-0.017,102.0,103.0,100.0,13.3,1505.2,359.1,-0.8,1.8,2471.55,13.29,0.021,346.6
2023-11-03T09:04:02,42.805,6.029,0.026,0.007,-0.009,104.0,101.0,101.0,13.4,1505.2,358.0,-0.8,1.9,2472.143,13.28,0.026,74.9
2023-11-03T09:07:03,42.805,6.029,0.001,0.009,-0.04,102.0,106.0,101.0,13.4,1505.2,343.4,-0.7,1.8,2472.033,13.28,0.009,6.3
2023-11-03T09:10:03,42.805,6.029,0.005,-0.011,-0.009,103.0,102.0,101.0,13.4,1505.2,353.1,-0.7,1.8,2471.943,13.28,0.012,155.6
2023-11-03T09:13:03,42.805,6.029,0.004,0.006,-0.032,103.0,102.0,102.0,13.4,1505.2,358.1,-0.8,1.8,2471.869,13.29,0.007,33.7
2023-11-03T09:16:03,42.805,6.029,0.018,0.031,0.011,102.0,102.0,100.0,13.4,1505.2,340.4,-0.7,1.8,2471.766,13.29,0.035,30.1
2023-11-03T09:19:03,42.805,6.029,0.007,0.017,-0.012,103.0,102.0,101.0,13.4,1505.2,339.6,-0.8,1.8,2471.752,13.29,0.018,22.4
2023-11-03T09:22:03,42.805,6.029,0.001,0.001,-0.04,103.0,101.0,102.0,13.4,1505.2,359.0,-0.8,1.8,2471.75,13.29,0.001,45.0
2023-11-03T09:25:03,42.805,6.029,0.006,0.014,-0.004,101.0,102.0,101.0,13.4,1505.2,358.1,-0.8,1.8,2471.676,13.29,0.015,23.2
2023-11-03T09:28:03,42.805,6.029,-0.018,0.009,-0.012,103.0,103.0,101.0,13.4,1505.2,338.2,-0.8,1.8,2471.67,13.29,0.02,296.6
2023-11-03T09:31:03,42.805,6.029,-0.001,0.0,-0.024,103.0,104.0,101.0,13.4,1505.2,349.6,-0.8,1.8,2471.627,13.29,0.001,270.0
2023-11-03T09:34:03,42.805,6.029,0.003,0.014,-0.011,103.0,103.0,101.0,13.4,1505.2,334.9,-0.8,1.8,2471.636,13.29,0.014,12.1
2023-11-03T09:37:03,42.805,6.029,-0.016,0.035,-0.012,102.0,103.0,101.0,13.3,1505.2,335.2,-0.8,1.8,2471.609,13.29,0.038,335.4
2023-11-03T09:40:03,42.805,6.029,0.007,-0.016,-0.024,102.0,101.0,103.0,13.3,1505.2,358.2,-0.8,1.8,2471.605,13.29,0.017,156.4
2023-11-03T09:43:03,42.805,6.029,-0.012,0.01,-0.009,103.0,102.0,103.0,13.3,1505.2,344.5,-0.8,1.8,2471.606,13.29,0.015,309.8
2023-11-03T09:46:03,42.805,6.029,-0.015,0.007,-0.02,104.0,103.0,100.0,13.3,1505.2,334.5,-0.8,1.8,2471.606,13.29,0.016,295.0
2023-11-03T09:49:03,42.805,6.029,0.011,0.004,-0.035,103.0,102.0,101.0,13.4,1505.2,358.2,-0.8,1.8,2471.612,13.29,0.011,70.0
2023-11-03T09:52:03,42.805,6.029,-0.018,0.009,-0.03,103.0,101.0,103.0,13.4,1505.2,347.1,-0.8,1.8,2471.611,13.29,0.02,296.6
2023-11-03T09:55:03,42.805,6.029,0.035,-0.002,-0.018,103.0,101.0,101.0,13.4,1505.2,333.8,-0.8,1.8,2471.634,13.29,0.035,93.3
2023-11-03T09:58:03,42.805,6.029,-0.004,0.009,-0.023,102.0,103.0,102.0,13.4,1505.2,351.1,-0.8,1.8,2471.648,13.29,0.009,336.0
2023-11-03T10:04:03,42.805,6.029,0.001,0.027,-0.023,103.0,103.0,103.0,13.4,1505.2,334.2,-0.7,1.8,2471.635,13.29,0.027,2.1
2023-11-03T10:07:03,42.805,6.029,-0.004,0.009,-0.041,102.0,102.0,101.0,13.4,1505.2,0.0,-0.8,1.8,2471.645,13.29,0.009,336.0
2023-11-03T10:10:03,42.805,6.029,0.005,-0.01,-0.008,104.0,103.0,102.0,13.4,1505.2,353.1,-0.8,1.8,2471.645,13.29,0.011,153.4
2023-11-03T10:13:03,42.805,6.029,0.005,0.016,-0.042,103.0,102.0,100.0,13.3,1505.2,336.6,-0.8,1.8,2471.654,13.29,0.016,17.4
2023-11-03T10:16:03,42.805,6.029,0.0,0.008,-0.024,108.0,103.0,102.0,13.4,1505.2,358.2,-0.8,1.8,2471.587,13.29,0.008,0.0
2023-11-03T10:19:03,42.805,6.029,0.021,-0.008,-0.032,103.0,100.0,102.0,13.3,1505.2,347.9,-0.8,1.8,2471.605,13.29,0.022,110.9
2023-11-03T10:22:03,42.805,6.029,0.02,0.0,-0.016,102.0,101.0,102.0,13.3,1505.2,345.7,-0.8,1.8,2471.616,13.29,0.02,90.0
2023-11-03T10:25:03,42.805,6.029,-0.005,0.018,-0.05,102.0,102.0,101.0,13.4,1505.2,332.2,-0.7,1.8,2471.626,13.29,0.018,344.5
2023-11-03T10:28:03,42.805,6.029,0.017,-0.009,-0.033,102.0,102.0,101.0,13.4,1505.2,352.1,-0.8,1.9,2471.608,13.29,0.019,117.9
2023-11-03T10:31:03,42.805,6.029,0.007,-0.009,-0.027,101.0,103.0,100.0,13.4,1505.2,342.1,-0.8,1.8,2471.639,13.29,0.011,142.1
2023-11-03T10:34:03,42.805,6.029,-0.007,0.023,-0.008,102.0,104.0,100.0,13.3,1505.2,343.4,-0.8,1.8,2471.628,13.29,0.024,343.1
2023-11-03T10:37:03,42.805,6.029,0.015,0.012,-0.026,101.0,106.0,101.0,13.4,1505.2,349.1,-0.7,1.8,2471.615,13.29,0.019,51.3
2023-11-03T10:40:03,42.805,6.029,-0.001,0.012,-0.037,102.0,102.0,100.0,13.4,1505.2,341.8,-0.8,1.8,2471.629,13.29,0.012,355.2
2023-11-03T10:43:03,42.805,6.029,0.03,0.0,-0.015,102.0,101.0,101.0,13.4,1505.2,352.7,-0.8,1.8,2471.654,13.29,0.03,90.0
2023-11-03T10:46:03,42.805,6.029,0.017,-0.005,-0.04,103.0,104.0,101.0,13.3,1505.2,350.8,-0.8,1.8,2471.629,13.29,0.017,106.4
2023-11-03T10:49:03,42.805,6.029,0.005,-0.015,-0.021,102.0,103.0,102.0,13.3,1505.2,354.2,-0.8,1.8,2471.611,13.29,0.015,161.6
2023-11-03T10:52:03,42.805,6.029,0.011,0.01,-0.023,103.0,102.0,102.0,13.4,1505.2,359.0,-0.8,1.8,2471.599,13.29,0.014,47.7
2023-11-03T10:55:03,42.805,6.029,-0.008,0.002,-0.044,101.0,103.0,101.0,13.4,1505.2,352.4,-0.8,1.8,2471.646,13.29,0.008,284.0
2023-11-03T10:58:03,42.805,6.029,0.017,0.016,-0.021,102.0,102.0,101.0,13.3,1505.2,354.8,-0.7,1.8,2471.63,13.29,0.023,46.7
2023-11-03T11:04:03,42.805,6.029,0.016,0.004,-0.007,103.0,103.0,100.0,13.4,1505.2,346.2,-0.8,1.8,2471.686,13.29,0.016,76.0